Regional Weather Roundup
Issued by NWS

Home | Current Version | Previous Version | Graphics & Text | Print | Product List | Glossary On
Versions: 1 2 3 4 5 6 7 8 9 10 11 12 13 14 15 16 17 18 19 20 21 22 23 24 25 26 27 28 29 30 31 32 33 34 35 36 37 38 39 40 41 42 43 44 45 46 47 48 49 50
000
ASUS43 KLSX 270307
RWRMO

WEATHER SUMMARY FOR MISSOURI
NATIONAL WEATHER SERVICE SPRINGFIELD MO
1000 PM CDT TUE AUG 26 2014

NOTE: "FAIR" INDICATES FEW OR NO CLOUDS BELOW 12,000 FEET WITH NO
       SIGNIFICANT WEATHER AND/OR OBSTRUCTIONS TO VISIBILITY.
       CURRENT SKY AND/OR WEATHER CONDITIONS ARE NOT AVAILABLE FOR
       CHILLICOTHE AND FARMINGTON.

MOZ001>031-035>038-043-044-053-054-270400-
...NORTHERN AND WESTERN MISSOURI...

CITY           SKY/WX    TMP DP  RH WIND       PRES   REMARKS
KANSAS CTY INT CLOUDY    80  72  76 E12       30.08R
KANSAS C DTWN  CLOUDY    83  73  72 E9        30.06R
LEE`S SUMMIT   PTCLDY    80  73  79 E8        30.09R
ST JOSEPH      MOCLDY    75  72  90 N5        30.09R
CHILLICOTHE      N/A     77  71  82 N3        30.11R
KIRKSVILLE     CLEAR     71  68  90 N6        30.12R

$$
MOZ066>068-077>081-088>096-101>105-270400-
...SOUTHWEST MISSOURI...

CITY           SKY/WX    TMP DP  RH WIND       PRES   REMARKS
SPRINGFIELD    MOCLDY    75  69  81 NW3       30.09R
JOPLIN         MOCLDY    79  67  66 NE8       30.09R

$$
MOZ032>034-039>042-045>050-055>058-069>072-270400-
...CENTRAL MISSOURI...

CITY           SKY/WX    TMP DP  RH WIND       PRES   REMARKS
COLUMBIA       MOCLDY    77  71  82 MISG      30.08S
JEFFERSON CITY MOCLDY    78  70  76 CALM      30.06R
ROLLA          CLOUDY    74  67  78 CALM      30.08R
SEDALIA        PTCLDY    79  70  74 CALM      30.08S
WHITEMAN AFB   CLEAR     76  67  75 N1        30.07S
OSAGE BEACH    CLOUDY    73  66  78 W5        30.07S

$$
MOZ051-052-059>065-270400-
...EAST CENTRAL MISSOURI...

CITY           SKY/WX    TMP DP  RH WIND       PRES   REMARKS
ST LOUIS INTL  MOCLDY    83  72  69 CALM      30.07R
SPIRIT OF STL  MOCLDY    78  73  84 CALM      30.05R
ST CHARLES     MOCLDY    78  74  87 N3        30.06R

$$
MOZ072>076-082>087-097>100-106>115-270400-
...SOUTH CENTRAL AND SOUTHEAST MISSOURI...

CITY           SKY/WX    TMP DP  RH WIND       PRES   REMARKS
CAPE GIRARDEAU CLEAR     80  73  79 CALM      30.06R
FARMINGTON     MOCLDY    81  68  65 CALM      30.11R
POPLAR BLUFF   CLEAR     77  71  82 CALM      30.05R
WEST PLAINS    CLEAR     81  67  62 S5        30.10R

$$



USA.gov is the U.S. government's official web portal to all federal, state and local government web resources and services.